星链-4502 (STARLINK-4502 )

导读 | 豆包AI

STARLINK-4502是美国太空探索技术公司SpaceX于2022年8月19日发射的星链(Starlink)低轨通信卫星,属于星链星座组网计划的组成部分。星链项目旨在为全球提供宽带互联网服务,星链卫星采用平板设计,配备氪工质霍尔推进器和太阳能电池阵,具备自主避撞能力,寿命末期会主动离轨再入大气层烧毁,减少太空垃圾影响。

基本信息
目录编号:
53557
目录名称:
STARLINK-4502
国际标识:
2022-101AG
轨道中心:
EARTH
卫星名称:
星链-4502
卫星全名:
星链-4502 (STARLINK-4502 )
卫星状态:
在轨 (已飞行1304 天)
发射日期:
2022-08-19 UTC
国别 :
美国 (US)
星等 :
--
轨道信息
数据来源 国际轨道数据
星历时间: 2026-03-15T05:29:48+0800
8小时前
查看轨道信息
半长轴: 6918.065km
偏心率: 0.0001252
轨道倾角: 53.218°
近地点辐角 106.946°
升交点赤经 40.749°
平近点角 253.167°
近地点: 539.061km
远地点: 540.795km
周期: 95.441分钟
每日圈数: 15.087799
详细信息
固有亮度:
5
最大亮度:
2.5
卫星平台:
Starlink v1.5
覆盖范围:
全球
运营商:
太空探索技术公司
运营商所在国:
美国
制造商(研发单位):
太空探索技术公司
制造商所在国:
美国
使用方式:
暂无
卫星简介
星链(Starlink)计划是由太空探索技术公司(SpaceX)提出的一个巨型低轨卫星互联网星座项目,计划在2019年至2024年间在太空搭建由约1.2万颗卫星组成的“星链”网络,其中1584颗将部署在地球上空550千米处的近地轨道,并从2020年开始工作。该卫星仍在工作。
2D轨道图
3D轨道图
轨道高度分析图
轨道倾角分析图
轨道综合分析图
查看轨道综合分析图